Regional Weather Roundup
Issued by NWS

Home | Current Version | Previous Version | Graphics & Text | Print | Product List | Glossary On
Versions: 1 2 3 4 5 6 7 8 9 10 11 12 13 14 15 16 17 18 19 20 21 22 23 24 25 26 27 28 29 30 31 32 33 34 35 36 37 38 39 40 41 42 43 44 45 46 47 48 49 50
000
ASUS43 KLOT 040508
RWRIL

ILLINOIS REGIONAL WEATHER ROUNDUP
NATIONAL WEATHER SERVICE CHICAGO/ROMEOVILLE IL
1200 AM CDT TUE AUG 04 2015

NOTE: "FAIR" INDICATES FEW OR NO CLOUDS BELOW 12,000 FEET WITH NO
SIGNIFICANT WEATHER AND/OR OBSTRUCTIONS TO VISIBILITY.

* THESE STATIONS ARE NOT UNDER NWS QUALITY CONTROL. THEY ALSO MAY NOT
  REPORT WEATHER SUCH AS PRECIPITATION OR FOG.

ILZ001-002-007-009-015-016-024-040600-
NORTHWEST ILLINOIS

CITY           SKY/WX    TMP DP  RH WIND       PRES   REMARKS
MOLINE         CLEAR     63  57  81 CALM      29.95S
STERLING*      CLEAR     64  55  72 W5        29.92S
SAVANNA*       CLEAR     62  58  86 CALM      29.94S
$$

ILZ003-004-008-010-011-017-018-040600-
NORTH CENTRAL ILLINOIS

CITY           SKY/WX    TMP DP  RH WIND       PRES   REMARKS
ROCKFORD       CLEAR     65  56  72 CALM      29.94S
FREEPORT*      CLEAR     61  55  78 W6        29.96S
ROCHELLE*      CLEAR     61  56  83 CALM      29.94S
DE KALB*       CLEAR     66  56  70 W8        29.94S
PERU*          CLEAR     63  55  76 W8        29.95F
$$

ILZ005-006-012>014-019>023-040600-
NORTHEAST ILLINOIS

CITY           SKY/WX    TMP DP  RH WIND       PRES   REMARKS
CHICAGO-OHARE  PTCLDY    68  56  65 W6        29.91R
CHICAGO-MIDWAY PTCLDY    72  54  53 W7        29.91S
AURORA         CLEAR     59  55  87 W6        29.93S
LANSING*       CLEAR     61  55  79 SW5       29.92S
JOLIET*        CLEAR     67  57  70 CALM      29.93R
WAUKEGAN       CLEAR     65  56  72 CALM      29.90R
DUPAGE AIRPORT CLEAR     66  55  67 W6        29.92R
KANKAKEE*      CLEAR     62  56  82 CALM      29.94F
WHEELING       CLEAR     69  53  56 W5        29.92R
MORRIS*        CLEAR     63  57  82 W5        29.93S
ROMEOVILLE*    CLEAR     64  55  72 W6        29.92S
NORTHERLY ISL    N/A     73  52  47 NW2         N/A
$$

LMZ740>746-040600-
SOUTHERN LAKE MICHIGAN

STATION/POSITION SKY/WX   TEMP    WIND        PRES    VSBY  WAVE
                          AIR SEA DIR/SP/G                  HT/PER
                          (F)     (DEG/KT/KT) (MB)    (MI)  (FT/S)
HARRISON CRIB              75     260/ 12/ 13   N/A
BURNHAM HARBOR             73     280/  6/  7   N/A
CALUMET HARBOR             73     220/  3/  5   N/A
BURNS HARBOR               69     180/  5/  7 1013.2S
MICHIGAN CITY              70     160/  6/  8   N/A
MICHIGAN CITY 6N           72 74  220/ 10/ 12   N/A           1/ 3
ST. JOSEPH                 73 74  260/ 12/ 14   N/A           1
$$

ILZ025>027-034>036-040-047-049-050-058-095>099-040600-
WEST-CENTRAL ILLINOIS

CITY           SKY/WX    TMP DP  RH WIND       PRES   REMARKS
QUINCY         PTCLDY    69  65  86 NE7       29.96S
GALESBURG*     CLEAR     60  58  93 CALM      29.97S
MACOMB*        CLEAR     62  60  96 NW3       29.99S
JACKSONVILLE*  PTCLDY    71  66  86 N3        29.95S
PITTSFIELD*    PTCLDY    72  65  80 CALM      29.97R
$$

ILZ028>032-037-038-041>044-048-051>054-059>061-040600-
CENTRAL ILLINOIS

CITY           SKY/WX    TMP DP  RH WIND       PRES   REMARKS
PONTIAC        CLEAR     65  60  82 W3        29.96S
BLOOMINGTON    CLEAR     70  59  68 NW6       29.97S
DECATUR        CLEAR     66  61  84 E3        29.96R
PEORIA         CLEAR     70  59  68 CALM      29.96S
LACON*         CLEAR     62  59  91 CALM      29.95S
LINCOLN*       CLEAR     66  61  83 CALM      29.96S
SPRINGFIELD    CLEAR     69  64  84 N5        29.96R
TAYLORVILLE    PTCLDY    68  64  88 CALM      29.96R
$$

ILZ033-039-045-046-055>057-062-063-040600-
EAST-CENTRAL ILLINOIS

CITY           SKY/WX    TMP DP  RH WIND       PRES   REMARKS
CHAMPAIGN      CLEAR     64  59  83 NW5       29.96R
DANVILLE*      CLEAR     60  58  94 NW3       29.93R
RANTOUL*       CLEAR     70  57  63 NW6       29.95S
MATTOON        CLEAR     69  63  81 N5        29.95R
PARIS*         CLEAR     64  61  93 CALM      29.96S
$$

ILZ079-100>102-040600-
SOUTHWEST ILLINOIS

CITY           SKY/WX    TMP DP  RH WIND       PRES   REMARKS
ALTON          PTCLDY    73  68  86 CALM      29.95S
BELLEVILLE     CLEAR     75  74  97 CALM      29.93S
CAHOKIA*       PTCLDY    77  71  82 CALM      29.94R
SPARTA*        CLEAR     76  71  84 CALM      29.95S
$$

ILZ064>066-069>071-074>076-080>082-084>086-088>090-092>094-040600-
SOUTH-CENTRAL ILLINOIS

CITY           SKY/WX    TMP DP  RH WIND       PRES   REMARKS
CARBONDALE     PTCLDY    76  74  93 CALM      29.93S
CAIRO*         CLEAR     75  74  96 CALM      29.93R
EFFINGHAM*     MOCLDY    75  61  61 CALM      29.96S
MARION         CLEAR     77  75  94 CALM      29.94S
MT. VERNON     CLEAR     72  64  78 CALM      29.95S
CENTRALIA*     CLEAR     71  67  89 CALM      29.95S
SALEM*         CLEAR     72  69  90 CALM      29.95S
METROPOLIS*    CLEAR     75  75 100 CALM      29.94R
$$

ILZ067-068-072-073-078-083-087-091-040600-
SOUTHEAST ILLINOIS

CITY           SKY/WX    TMP DP  RH WIND       PRES   REMARKS
LAWRENCEVILLE  CLEAR     74  67  78 NW3       29.94R
FLORA*         CLEAR     73  67  83 NW3       29.94S
FAIRFIELD*     CLEAR     73  70  92 CALM      29.93R
HARRISBURG*    CLEAR     75  73  94 CALM      29.94S
ROBINSON*      PTCLDY    71  66  85 CALM      29.95R
CARMI*         CLEAR     73  67  83 CALM      29.93R
$$

ABBREVIATIONS USED IN REMARKS
   TC - TEMPERATURE IN CELSIUS
  WCI - WIND CHILL INDEX
   HX - HEAT INDEX
  VSB - VISIBILITY
$$



USA.gov is the U.S. government's official web portal to all federal, state and local government web resources and services.